Regional Weather Roundup
Issued by NWS

Home | Current Version | Previous Version | Text Only | Print | Product List | Glossary On
Versions: 1 2 3 4 5 6 7 8 9 10 11 12 13 14 15 16 17 18 19 20 21 22 23 24 25 26 27 28 29 30 31 32 33 34 35 36 37 38 39 40 41 42 43 44 45 46 47 48 49 50
000
ASUS43 KIND 062109
RWRIN

WEATHER ROUNDUP FOR INDIANA
NATIONAL WEATHER SERVICE INDIANAPOLIS IN
500 PM EDT FRI MAY 06 2016

NOTE: "FAIR" INDICATES FEW OR NO CLOUDS BELOW 12,000 FEET WITH NO
SIGNIFICANT WEATHER AND/OR OBSTRUCTIONS TO VISIBILITY.

* - STATION DOES NOT REPORT WEATHER SUCH AS PRECIPITATION OR FOG.

+ - STATION NOT QUALITY CONTROLLED BY THE NATIONAL WEATHER SERVICE.
    USE DATA WITH CAUTION...ESPECIALLY DEWPOINT AND RELATIVE
    HUMIDITY OBSERVATIONS.

INZ001>003-010>013-019-020-062200-
NORTHWEST INDIANA

CITY           SKY/WX    TMP DP  RH WIND       PRES   REMARKS
GARY /AIRPORT/ MOSUNNY   77  54  44 SW9       29.87F
KNOX *+          N/A     73  25  16 W9          N/A
LA PORTE +     SUNNY     75  42  31 SW12      29.89F
MICHIGAN CITY+ SUNNY     72  45  37 SW8       29.87F
MONTICELLO +   MOSUNNY   72  32  22 W5        29.89F
RENSSELAER +   SUNNY     77  34  20 SW12      29.89F
VALPARAISO     SUNNY     75  43  31 SW12      29.88F

$$

LMZ046-743>745-062200-
SOUTHERN LAKE MICHIGAN

STATION/POSITION TIME  TEMP    WIND        PRES    WAVE
                       AIR SEA DIR/SP/G            HT
                 (UTC) (F)     (DEG/KT/KT) (MB)    (FT)
BURNS HARBOR     2000   72     210/  6/ 13 1012.5F
MICHIGAN CITY    2000   64     360/  2/  3   N/A

$$

INZ004-005-014>016-021>024-062200-
NORTH CENTRAL INDIANA

CITY           SKY/WX    TMP DP  RH WIND       PRES   REMARKS
GOSHEN         SUNNY     69  47  45 W9        29.88F
LOGANSPORT +   SUNNY     70  41  35 W7        29.91F
PERU/GRISSOM   SUNNY     71  44  37 W9        29.89F
ROCHESTER +    SUNNY     73  41  31 W7        29.90F
SOUTH BEND     CLOUDY    73  41  31 W5        29.88F
WARSAW +       SUNNY     72  41  33 W5        29.89F

$$

INZ006>009-017-018-025>027-062200-
NORTHEAST INDIANA

CITY           SKY/WX    TMP DP  RH WIND       PRES   REMARKS
ANGOLA *+        N/A     72  39  30 W5        29.88F
AUBURN +       SUNNY     70  36  28 NW9       29.89F
FORT WAYNE     MOSUNNY   71  40  32 W10       29.89F
HUNTINGTON +   SUNNY    N/A N/A N/A NW7       29.89F

$$

INZ028-029-035-036-043>045-051>053-062200-
WEST CENTRAL INDIANA

CITY           SKY/WX    TMP DP  RH WIND       PRES   REMARKS
CRAWFORDSVL +  SUNNY     70  43  38 W7        29.93F
GREENCASTLE +  SUNNY     70  46  43 W7        29.94F
LAFAYETTE      PTSUNNY   71  42  35 W8        29.90F
TERRE HAUTE    SUNNY     73  39  29 NW9       29.94F

$$

INZ030>032-037>040-046>048-054>057-064-065-062200-
CENTRAL INDIANA

CITY           SKY/WX    TMP DP  RH WIND       PRES   REMARKS
CP ATTERBURY + SUNNY     70  41  35 NW3G17    29.93F
COLUMBUS       SUNNY     68  43  40 NW9       29.94F
FISHERS *+     SUNNY     70  48  46 NW12      29.92F
FRANKFORT +      N/A     73  17  11 W5        29.93F
GREENWOOD *+   SUNNY     70  41  35 W8G16     29.93F
INDIANAPOLIS   MOSUNNY   71  40  32 NW12G20   29.92F
-EAGLE CREEK   SUNNY     71  41  33 N10       29.92F
KOKOMO *+      SUNNY     72  45  37 W7        29.90F
MARION +       SUNNY     69  39  33 NW12      29.91F
SHELBYVILLE    SUNNY     72  41  32 NW14      29.91F
ZIONSVILLE +   SUNNY     69  44  39 W9        29.93F

$$

INZ033-034-041-042-049-050-058-059-062200-
EAST CENTRAL INDIANA

CITY           SKY/WX    TMP DP  RH WIND       PRES   REMARKS
MUNCIE         SUNNY     71  40  32 NW15G22   29.91F

$$

INZ060-061-067>069-081>083-085>088-062200-
SOUTHWEST INDIANA

CITY           SKY/WX    TMP DP  RH WIND       PRES   REMARKS
EVANSVILLE     SUNNY     72  43  35 VRB7      29.98F
HUNTINGBURG *+ SUNNY     70  45  40 NW8       29.97F
WASHINGTON +   SUNNY     72  44  36 NW6       29.95F

$$

INZ062-063-066-070>080-084-089>092-062200-
SOUTH CENTRAL AND SOUTHEAST INDIANA

CITY           SKY/WX    TMP DP  RH WIND       PRES   REMARKS
BEDFORD +      SUNNY     72  52  49 NW8G22    29.93F
BLOOMINGTON    SUNNY     72  41  32 NW8       29.94F
MADISON *+     SUNNY     70  32  24 NW8       29.95F
NORTH VERNON + SUNNY     70  50  49 CALM      29.93F
SEYMOUR +      SUNNY     73  45  35 NW9       29.93F

$$




USA.gov is the U.S. government's official web portal to all federal, state and local government web resources and services.